[[{"header":{"parameterUnit":"m.s-1","parameterCategory":1,"la1":30.2991,"la2":30.254,"lo1":-89.0895,"lo2":-89.0444,"dy":0.0017,"dx":0.0017,"nx":28,"ny":28,"refTime":"2023-04-06T21:00:00:Z","depth":0,"parameterNumber":2,"parameterNumberName":"U-component_of_WINDS"},"data":[0,0,0,0,0,0,0,0,0,0,0,0,0,0,0,0,0,0,0,0,0,0,0,0,0,0,0,0,0,0,0,0,0,0,0,0,0,0,0,0,0,0,0,0,0,0,0,0,0,0,0,0,0,0,0,0,0,0,-3.2649,-3.265,0,-3.2765,-3.2766,-3.2768,-3.2816,-3.2816,-3.2816,-3.2816,-3.2937,-3.294,-3.2943,0,0,0,0,0,0,0,0,0,0,0,0,0,-3.2472,-3.2475,-3.2649,-3.265,-3.2652,-3.2765,-3.2766,-3.2768,-3.2816,-3.2816,-3.2816,-3.2816,-3.2935,-3.2939,-3.2944,0,0,0,0,0,0,0,0,0,0,0,0,0,-3.2564,-3.2476,-3.2649,-3.2689,-3.2694,-3.2765,-3.2767,-3.2769,-3.2816,-3.2816,-3.2816,-3.2815,-3.2934,-3.2939,-3.2944,-3.2983,0,0,-3.296,-3.2962,0,0,0,0,0,0,0,0,-3.2559,-3.2571,-3.2682,-3.2687,-3.2692,-3.2776,-3.2748,-3.2841,-3.2817,-3.277,-3.2816,-3.2815,-3.2883,-3.2893,-3.2915,-3.2989,-3.2994,-3.296,-3.2964,-3.2966,-3.2967,0,0,0,0,0,0,0,-3.2553,-3.2566,-3.2695,-3.2684,-3.269,-3.2703,-3.2716,-3.2766,-3.2827,-3.2774,-3.2778,-3.2791,-3.2886,-3.291,-3.2919,-3.2996,-3.296,-3.2965,-3.2968,-3.297,-3.3109,-3.311,0,0,0,0,0,0,-3.2539,-3.256,-3.2691,-3.2698,-3.2623,-3.2706,-3.2721,-3.2749,-3.2827,-3.2838,-3.2791,-3.2793,-3.2902,-3.2913,-3.2923,-3.2975,-3.2966,-3.2971,-3.2973,-3.3109,-3.3109,-3.311,0,0,0,0,0,0,-3.2535,-3.255,-3.2687,-3.2631,-3.2649,-3.271,-3.2742,-3.2752,-3.2776,-3.284,-3.2851,-3.2804,-3.2902,-3.2916,-3.2968,-3.2979,-3.2973,-3.2978,-3.3108,-3.3109,-3.311,-3.3077,0,0,0,0,0,0,-3.253,-3.2549,-3.2563,-3.263,-3.2652,-3.2728,-3.2742,-3.2754,-3.2784,-3.2788,-3.2855,-3.2866,-3.2903,-3.296,-3.2973,-3.2986,-3.2982,-3.3107,-3.3108,-3.3109,-3.3078,-3.3077,-3.3076,0,0,0,0,0,-3.2523,-3.2549,-3.2563,-3.2579,-3.2671,-3.2729,-3.2741,-3.2782,-3.2785,-3.2801,-3.2842,-3.2864,-3.2976,-3.2965,-3.298,-3.2995,-3.3106,-3.3108,-3.3109,-3.3078,-3.3077,-3.3076,0,0,0,0,0,0,-3.2482,-3.2559,-3.2575,-3.2624,-3.2669,-3.2737,-3.2758,-3.278,-3.2826,-3.2827,-3.2877,-3.2892,-3.294,-3.2973,-3.2959,-3.3038,-3.3043,-3.3048,-3.3014,-3.3014,-3.3014,-3.3004,-3.2986,0,0,0,0,0,-3.2478,-3.2518,-3.2584,-3.262,-3.2642,-3.2696,-3.2723,-3.2751,-3.28,-3.282,-3.2865,-3.2913,-3.296,-3.2989,-3.3035,-3.3083,-3.3099,-3.3101,-3.3101,-3.31,-3.3103,-3.3132,-3.3134,-3.3114,-3.3114,-3.3114,0,0,-3.2471,-3.2518,-3.254,-3.2613,-3.2652,-3.2693,-3.2712,-3.2754,-3.2786,-3.2827,-3.2879,-3.2914,-3.2971,-3.3021,-3.3046,-3.305,-3.3112,-3.3102,-3.31,-3.3104,-3.3134,-3.3136,-3.3137,-3.3115,-3.3115,-3.3115,0,0,-3.248,-3.2519,-3.2554,-3.2593,-3.2651,-3.2687,-3.2695,-3.276,-3.2785,-3.2838,-3.287,-3.2909,-3.2987,-3.3027,-3.3057,-3.3083,-3.3105,-3.3097,-3.3094,-3.3122,-3.3123,-3.3125,-3.3135,-3.3138,-3.31,-3.31,-3.31,0,-3.2464,-3.2526,-3.2569,-3.2611,-3.2642,-3.2681,-3.2718,-3.2754,-3.2824,-3.2846,-3.285,-3.295,-3.2991,-3.3052,-3.3059,-3.3082,-3.3094,-3.3089,-3.3119,-3.3122,-3.3124,-3.3134,-3.3137,-3.3099,-3.3099,-3.3099,-3.3099,0,-3.2504,-3.2547,-3.2569,-3.2636,-3.267,-3.2708,-3.2759,-3.2789,-3.2814,-3.285,-3.2905,-3.2956,-3.3014,-3.3031,-3.3056,-3.3096,-3.3097,-3.311,-3.3116,-3.3124,-3.3134,-3.3138,-3.3097,-3.3097,-3.3098,-3.3098,0,0,-3.2488,-3.2579,-3.2587,-3.2618,-3.2686,-3.2721,-3.2762,-3.2818,-3.2843,-3.2891,-3.2928,-3.2995,-3.3007,-3.3042,-3.3072,-3.3097,-3.3115,-3.3107,-3.3109,-3.3107,-3.3164,-3.3154,-3.3157,-3.3131,-3.3132,-3.3132,-3.3159,0,-3.2506,-3.258,-3.2621,-3.2679,-3.272,-3.2759,-3.2795,-3.2842,-3.2877,-3.2918,-3.2958,-3.3004,-3.3017,-3.3038,-3.3064,-3.3107,-3.3127,-3.3106,-3.3166,-3.3168,-3.315,-3.3162,-3.3151,-3.3174,-3.3163,-3.3164,-3.3165,0,-3.2536,-3.2583,-3.2644,-3.2709,-3.2728,-3.2759,-3.2815,-3.2853,-3.2908,-3.2932,-3.2971,-3.3002,-3.3049,-3.3052,-3.3118,-3.3103,-3.313,-3.3155,-3.3157,-3.3164,-3.3166,-3.3169,-3.3182,-3.3185,-3.3171,-3.3171,-3.317,0,-3.2518,-3.2597,-3.2645,-3.267,-3.2747,-3.2768,-3.2801,-3.2855,-3.2887,-3.2936,-3.2958,-3.3012,-3.3041,-3.3084,-3.3129,-3.3127,-3.3191,-3.3197,-3.3213,-3.3212,-3.3224,-3.3222,-3.3241,-3.3242,-3.3242,-3.3242,-3.3242,0,-3.2533,-3.257,-3.2638,-3.2667,-3.2709,-3.2757,-3.2798,-3.2835,-3.2883,-3.2921,-3.2958,-3.2993,-3.3051,-3.3094,-3.313,-3.3179,-3.3193,-3.3214,-3.3223,-3.3211,-3.3208,-3.3229,-3.3228,-3.3243,-3.3242,-3.3242,-3.3242,0,-3.252,-3.2567,-3.2622,-3.269,-3.2708,-3.2736,-3.2796,-3.2826,-3.2864,-3.2912,-3.2926,-3.2986,-3.3038,-3.3087,-3.3158,-3.3182,-3.3232,-3.3244,-3.3213,-3.3218,-3.3231,-3.3229,-3.3263,-3.327,-3.3266,-3.3266,-3.3266,0,-3.2527,-3.2556,-3.2627,-3.2655,-3.2687,-3.2731,-3.2764,-3.2813,-3.2846,-3.2911,-3.2934,-3.2989,-3.3035,-3.3118,-3.3168,-3.3223,-3.3236,-3.3244,-3.3244,-3.3231,-3.3236,-3.3234,-3.3238,-3.3243,-3.3243,-3.3243,-3.3243,0,-3.2533,-3.2555,-3.26,-3.2654,-3.2691,-3.2736,-3.2782,-3.2803,-3.2862,-3.2897,-3.295,-3.2986,-3.3058,-3.3113,-3.3174,-3.321,-3.3236,-3.3242,-3.3249,-3.3236,-3.3217,-3.3228,-3.321,-3.3241,-3.3241,-3.3241,-3.3241,-3.3242,-3.2531,-3.2558,-3.2613,-3.2662,-3.2702,-3.2745,-3.2777,-3.2819,-3.2864,-3.2926,-3.2953,-3.3007,-3.3063,-3.3147,-3.3183,-3.3227,-3.3233,-3.3243,-3.3245,-3.3246,-3.3244,-3.321,-3.3239,-3.3239,-3.3239,-3.3239,-3.3239,0,-3.2539,-3.2577,-3.2621,-3.2685,-3.2724,-3.2745,-3.2798,-3.2829,-3.2876,-3.2926,-3.2971,-3.3033,-3.3087,-3.3142,-3.32,-3.3225,-3.3239,-3.3238,-3.3237,-3.3245,-3.3235,-3.3224,-3.3226,-3.3226,-3.3226,-3.3226,-3.3226,-3.3226,-3.2548,-3.2597,-3.2625,-3.2695,-3.2732,-3.2785,-3.2814,-3.2854,-3.2893,-3.2961,-3.3005,-3.3041,-3.3093,-3.3155,-3.3206,-3.3221,-3.324,-3.3236,-3.3255,-3.3245,-3.3245,-3.3246,-3.3235,-3.324,-3.324,-3.3261,-3.3261,-3.3261]},{"header":{"parameterUnit":"m.s-1","parameterCategory":1,"la1":30.2991,"la2":30.254,"lo1":-89.0895,"lo2":-89.0444,"dy":0.0017,"dx":0.0017,"nx":28,"ny":28,"refTime":"2023-04-06T21:00:00:Z","depth":0,"parameterNumber":3,"parameterNumberName":"V-component_of_WINDS"},"data":[0,0,0,0,0,0,0,0,0,0,0,0,0,0,0,0,0,0,0,0,0,0,0,0,0,0,0,0,0,0,0,0,0,0,0,0,0,0,0,0,0,0,0,0,0,0,0,0,0,0,0,0,0,0,0,0,0,0,3.0568,3.0568,0,3.0585,3.0585,3.0585,3.0635,3.0636,3.0637,3.0638,3.0651,3.065,3.065,0,0,0,0,0,0,0,0,0,0,0,0,0,3.0579,3.0578,3.0568,3.0568,3.0569,3.0585,3.0585,3.0585,3.0635,3.0636,3.0637,3.0639,3.0651,3.065,3.065,0,0,0,0,0,0,0,0,0,0,0,0,0,3.0582,3.0578,3.0568,3.0595,3.0598,3.0585,3.0585,3.0585,3.0634,3.0636,3.0638,3.0639,3.0652,3.0651,3.065,3.061,0,0,3.0646,3.0646,0,0,0,0,0,0,0,0,3.0582,3.0582,3.0591,3.0593,3.0596,3.061,3.0593,3.0593,3.0634,3.062,3.0638,3.064,3.0636,3.0636,3.0635,3.0611,3.0611,3.0646,3.0646,3.0645,3.0645,0,0,0,0,0,0,0,3.0582,3.0582,3.0575,3.0591,3.0594,3.0607,3.0609,3.0594,3.0618,3.0622,3.0625,3.0627,3.0637,3.0636,3.0636,3.0611,3.0646,3.0645,3.0645,3.0644,3.0559,3.0557,0,0,0,0,0,0,3.0578,3.0581,3.0574,3.0575,3.0593,3.0605,3.0608,3.0604,3.0619,3.0623,3.0625,3.0629,3.0637,3.0637,3.0637,3.0594,3.0645,3.0644,3.0644,3.056,3.0558,3.0557,0,0,0,0,0,0,3.0578,3.0577,3.0573,3.0579,3.058,3.0603,3.0598,3.0603,3.0602,3.0622,3.0626,3.062,3.0638,3.0638,3.0617,3.0595,3.0644,3.0643,3.0562,3.056,3.0557,3.0506,0,0,0,0,0,0,3.0578,3.0577,3.0562,3.0579,3.0579,3.0554,3.0597,3.0602,3.0601,3.0606,3.0617,3.0621,3.064,3.0619,3.0616,3.0594,3.0642,3.0564,3.0561,3.0558,3.051,3.0502,3.0495,0,0,0,0,0,3.0578,3.0545,3.0561,3.056,3.0561,3.0553,3.0553,3.0576,3.0598,3.0584,3.0597,3.0621,3.0598,3.0616,3.0614,3.0591,3.0566,3.0562,3.0558,3.0513,3.0503,3.0495,0,0,0,0,0,0,3.0523,3.0547,3.0565,3.0536,3.0542,3.0561,3.0543,3.0565,3.0563,3.0568,3.0596,3.0598,3.0574,3.058,3.06,3.0556,3.0586,3.0582,3.0552,3.0543,3.0536,3.0535,3.0641,0,0,0,0,0,3.0507,3.0499,3.0521,3.0493,3.0496,3.0519,3.0516,3.0534,3.054,3.0543,3.0554,3.0559,3.0553,3.0549,3.0544,3.0511,3.0515,3.0495,3.0487,3.0481,3.0477,3.0463,3.0455,3.0544,3.0544,3.0544,0,0,3.0475,3.0488,3.048,3.0483,3.0489,3.048,3.052,3.0508,3.0502,3.054,3.0522,3.0531,3.0539,3.0512,3.0501,3.0517,3.0454,3.0477,3.0472,3.0471,3.0458,3.045,3.0442,3.0542,3.0542,3.0543,0,0,3.0412,3.042,3.0399,3.0406,3.0417,3.0433,3.0428,3.0444,3.0452,3.0435,3.0465,3.0458,3.0446,3.0452,3.0452,3.0395,3.0417,3.0393,3.0355,3.0341,3.0334,3.0328,3.0309,3.0302,3.0389,3.0389,3.0388,0,3.0369,3.0358,3.0385,3.0373,3.0374,3.0411,3.0391,3.0395,3.0403,3.0403,3.0421,3.041,3.0418,3.0395,3.0381,3.038,3.0376,3.0391,3.0333,3.0327,3.0322,3.0304,3.0297,3.0386,3.0386,3.0386,3.0386,0,3.0307,3.0298,3.028,3.029,3.0289,3.0272,3.0297,3.0293,3.0312,3.0327,3.031,3.0321,3.0321,3.0316,3.0333,3.0296,3.0306,3.0328,3.0359,3.031,3.0294,3.0287,3.0381,3.0382,3.0383,3.0384,0,0,3.0206,3.0234,3.0227,3.0234,3.025,3.0243,3.0229,3.0231,3.0228,3.0232,3.0222,3.0214,3.0235,3.0236,3.0254,3.0242,3.0199,3.0266,3.0266,3.0254,3.0161,3.0145,3.0137,3.0214,3.0213,3.0212,3.0161,0,3.0148,3.0126,3.0153,3.0125,3.0119,3.0156,3.0144,3.0153,3.0167,3.0163,3.0178,3.0173,3.02,3.0202,3.0191,3.0206,3.018,3.021,3.0204,3.0204,3.0202,3.0128,3.011,3.0062,3.0155,3.0153,3.0153,0,3.0076,3.008,3.0053,3.0074,3.0073,3.0061,3.0067,3.0063,3.0074,3.0085,3.0089,3.0112,3.01,3.0131,3.0116,3.0136,3.0135,3.0142,3.0141,3.0142,3.0175,3.0127,3.0047,3.004,3.0143,3.0144,3.0144,0,3.0008,3.0007,2.9991,2.9995,3.0019,3.001,3.002,3.0033,3.0033,3.0038,3.0039,3.0041,3.0042,3.0044,3.0068,3.0087,3.005,3.0082,3.0059,3.0059,3.0049,3.005,2.9968,3.0048,3.0048,3.0048,3.0048,0,2.994,2.9922,2.9962,2.9952,2.9934,2.9965,2.9946,2.9959,2.9971,2.9965,2.9996,2.9989,3.0021,3.0018,3.0036,3.0022,3.0022,3.0031,3.0036,3.0029,3.0028,3.0029,3.0033,3.0046,3.0047,3.0047,3.0047,0,2.986,2.9886,2.9872,2.9897,2.9903,2.9888,2.9909,2.9902,2.9919,2.9911,2.9911,2.9938,2.9936,2.996,2.9962,2.9975,2.9953,2.9963,2.995,2.9953,2.993,2.9932,2.9847,2.9838,2.9922,2.9921,2.992,0,2.9816,2.9803,2.9828,2.9827,2.9836,2.9833,2.9835,2.9866,2.9866,2.988,2.9871,2.9873,2.9875,2.9871,2.9891,2.9893,2.9905,2.9875,2.9905,2.9899,2.9906,2.9907,2.9907,2.9868,2.9867,2.9866,2.9866,0,2.9734,2.9749,2.975,2.9758,2.9759,2.9766,2.9774,2.9772,2.9805,2.9804,2.9804,2.9807,2.9811,2.9813,2.982,2.9829,2.9853,2.9856,2.9851,2.9844,2.9837,2.9842,2.9933,2.9858,2.9859,2.9859,2.986,2.986,2.9672,2.9664,2.9681,2.9683,2.9693,2.9701,2.9697,2.9715,2.9716,2.9723,2.9741,2.9738,2.9753,2.9765,2.9773,2.9771,2.9786,2.9778,2.9777,2.9774,2.9771,2.9837,2.9772,2.9772,2.9773,2.9773,2.9773,0,2.9594,2.9608,2.9609,2.9622,2.9624,2.9648,2.966,2.966,2.9658,2.9669,2.9673,2.9674,2.9677,2.9697,2.9702,2.9697,2.9709,2.9698,2.9699,2.9701,2.9756,2.9761,2.9689,2.9689,2.9689,2.9689,2.9689,2.9689,2.9554,2.9543,2.9559,2.9554,2.9568,2.9567,2.9572,2.958,2.959,2.9591,2.9594,2.9608,2.9624,2.9631,2.9635,2.9641,2.9642,2.9627,2.9637,2.9688,2.9697,2.9704,2.9709,2.9627,2.9627,2.9582,2.9582,2.9581]}]]